When you browse on this site, cookies collect data to enhance your experience and personalize the content and advertising you see.
Visit our Privacy Policy to learn more. By continuing to use the site, you agree to this use of cookies and data.
  • In Hungary
  • List of Countries
  • For 7 days
  • Water Temperature
  • Satellite Maps
  • Weather Map
  • News
  • Weather Widgets
  • user-avatar
    Login

    Hourly Weather Huinan

    Today, 13 December, Thursday

    Time Temperature Precipitation Wind Pressure Humidity
    00:00 -12°C° 0 mm 2 mps 738 mmHg 53%
    01:00 -12°C° 0 mm 2 mps 737 mmHg 53%
    02:00 -12°C° 0 mm 2 mps 737 mmHg 53%
    03:00 -12°C° 0 mm 2 mps 738 mmHg 55%
    04:00 -13°C° 0 mm 3 mps 738 mmHg 58%
    05:00 -13°C° 0 mm 3 mps 738 mmHg 61%
    06:00 -14°C° 0 mm 3 mps 738 mmHg 62%
    07:00 -14°C° 0 mm 3 mps 738 mmHg 63%
    08:00 -15°C° 0 mm 4 mps 739 mmHg 64%
    09:00 -15°C° 0 mm 4 mps 739 mmHg 62%
    10:00 -15°C° 0 mm 4 mps 740 mmHg 59%
    11:00 -14°C° 0 mm 4 mps 740 mmHg 56%
    12:00 -14°C° 0 mm 4 mps 741 mmHg 55%
    13:00 -14°C° 0 mm 4 mps 741 mmHg 55%
    14:00 -14°C° 0 mm 4 mps 741 mmHg 54%
    15:00 -15°C° 0 mm 4 mps 742 mmHg 57%
    16:00 -14°C° 0 mm 3 mps 743 mmHg 60%
    17:00 -14°C° 0 mm 3 mps 743 mmHg 63%
    18:00 -15°C° 0 mm 3 mps 744 mmHg 65%
    19:00 -14°C° 0 mm 2 mps 744 mmHg 67%
    20:00 -14°C° 0 mm 2 mps 745 mmHg 69%
    21:00 -14°C° 0 mm 2 mps 745 mmHg 70%
    22:00 -15°C° 0 mm 2 mps 745 mmHg 71%
    23:00 -15°C° 0 mm 2 mps 746 mmHg 71%

    Tomorrow, 14 December, Friday

    Time Temperature Precipitation Wind Pressure Humidity
    00:00 -13°C° 0 mm 1 mps 746 mmHg 72%
    01:00 -13°C° 0 mm 1 mps 746 mmHg 73%
    02:00 -14°C° 0 mm 1 mps 746 mmHg 73%
    03:00 -14°C° 0 mm 1 mps 746 mmHg 74%
    04:00 -14°C° 0 mm 1 mps 746 mmHg 74%
    05:00 -14°C° 0 mm 1 mps 746 mmHg 75%
    06:00 -14°C° 0 mm 1 mps 747 mmHg 74%
    07:00 -14°C° 0 mm 1 mps 747 mmHg 72%
    08:00 -14°C° 0 mm 1 mps 747 mmHg 71%
    09:00 -12°C° 0 mm 1 mps 747 mmHg 63%
    10:00 -11°C° 0 mm 1 mps 746 mmHg 55%
    11:00 -10°C° 0 mm 1 mps 746 mmHg 47%
    12:00 -9°C° 0 mm 1 mps 746 mmHg 45%
    13:00 -9°C° 0 mm 1 mps 746 mmHg 42%
    14:00 -8°C° 0 mm 1 mps 745 mmHg 40%
    15:00 -9°C° 0 mm 1 mps 745 mmHg 43%
    16:00 -10°C° 0 mm 1 mps 745 mmHg 46%
    17:00 -10°C° 0 mm 1 mps 745 mmHg 50%
    18:00 -10°C° 0 mm 1 mps 745 mmHg 51%
    19:00 -11°C° 0 mm 1 mps 745 mmHg 53%
    20:00 -11°C° 0 mm 1 mps 745 mmHg 55%
    21:00 -11°C° 0 mm 1 mps 745 mmHg 56%
    22:00 -11°C° 0 mm 1 mps 745 mmHg 56%
    23:00 -11°C° 0 mm 1 mps 744 mmHg 57%

    Day after tomorrow, 15 December, Saturday

    Time Temperature Precipitation Wind Pressure Humidity
    00:00 -11°C° 0 mm 1 mps 744 mmHg 57%
    01:00 -11°C° 0 mm 1 mps 744 mmHg 57%
    02:00 -13°C° 0 mm 2 mps 744 mmHg 57%
    03:00 -13°C° 0 mm 2 mps 743 mmHg 57%
    04:00 -13°C° 0 mm 2 mps 742 mmHg 56%
    05:00 -13°C° 0 mm 2 mps 742 mmHg 55%
    06:00 -13°C° 0 mm 2 mps 741 mmHg 53%
    07:00 -12°C° 0 mm 2 mps 741 mmHg 51%
    08:00 -13°C° 0 mm 3 mps 741 mmHg 49%
    09:00 -9°C° 0 mm 3 mps 740 mmHg 46%
    10:00 -8°C° 0 mm 4 mps 739 mmHg 44%
    11:00 -6°C° 0 mm 5 mps 739 mmHg 41%
    12:00 -6°C° 0 mm 5 mps 738 mmHg 47%
    13:00 -5°C° 0 mm 6 mps 737 mmHg 52%
    14:00 -5°C° 0 mm 6 mps 737 mmHg 57%
    15:00 -5°C° 0 mm 6 mps 737 mmHg 63%
    16:00 -6°C° 0 mm 5 mps 737 mmHg 68%
    17:00 -6°C° 0 mm 5 mps 737 mmHg 74%
    18:00 -6°C° 0 mm 5 mps 737 mmHg 76%
    19:00 -5°C° 0 mm 4 mps 736 mmHg 77%
    20:00 -5°C° 0 mm 4 mps 736 mmHg 79%
    21:00 -5°C° 0 mm 4 mps 736 mmHg 82%
    22:00 -7°C° 0 mm 4 mps 736 mmHg 84%
    23:00 -7°C° 0 mm 4 mps 736 mmHg 86%

    16 December, Sunday

    Time Temperature Precipitation Wind Pressure Humidity
    00:00 -7°C° 0 mm 4 mps 735 mmHg 87%
    01:00 -6°C° 0 mm 3 mps 735 mmHg 89%
    02:00 -7°C° 0 mm 3 mps 735 mmHg 90%
    03:00 -7°C° 0 mm 3 mps 735 mmHg 91%
    04:00 -7°C° 0 mm 3 mps 734 mmHg 92%
    05:00 -7°C° 0 mm 2 mps 734 mmHg 93%
    06:00 -7°C° 0 mm 2 mps 734 mmHg 92%
    07:00 -7°C° 0 mm 2 mps 734 mmHg 92%
    08:00 -7°C° 0 mm 2 mps 734 mmHg 92%
    09:00 -6°C° 0 mm 2 mps 734 mmHg 82%
    10:00 -5°C° 0 mm 2 mps 734 mmHg 72%
    11:00 -5°C° 0 mm 3 mps 733 mmHg 62%
    12:00 -5°C° 0 mm 3 mps 733 mmHg 57%
    13:00 -5°C° 0 mm 3 mps 733 mmHg 53%
    14:00 -5°C° 0 mm 3 mps 732 mmHg 48%
    15:00 -5°C° 0 mm 2 mps 732 mmHg 51%
    16:00 -5°C° 0 mm 2 mps 732 mmHg 54%
    17:00 -4°C° 0 mm 1 mps 733 mmHg 57%
    18:00 -6°C° 0 mm 1 mps 733 mmHg 57%
    19:00 -6°C° 0 mm 1 mps 733 mmHg 57%
    20:00 -7°C° 0 mm 1 mps 733 mmHg 57%
    21:00 -7°C° 0 mm 1 mps 733 mmHg 57%
    22:00 -8°C° 0 mm 2 mps 733 mmHg 57%
    23:00 -9°C° 0 mm 2 mps 733 mmHg 57%

    17 December, Monday

    Time Temperature Precipitation Wind Pressure Humidity
    00:00 -9°C° 0 mm 2 mps 733 mmHg 58%
    01:00 -9°C° 0 mm 2 mps 733 mmHg 58%
    02:00 -9°C° 0 mm 2 mps 733 mmHg 59%
    03:00 -10°C° 0 mm 2 mps 733 mmHg 59%
    04:00 -10°C° 0 mm 2 mps 732 mmHg 60%
    05:00 -10°C° 0 mm 2 mps 732 mmHg 60%
    06:00 -10°C° 0 mm 2 mps 732 mmHg 59%
    07:00 -10°C° 0 mm 2 mps 733 mmHg 58%
    08:00 -9°C° 0 mm 2 mps 733 mmHg 58%
    09:00 -9°C° 0 mm 3 mps 732 mmHg 51%
    10:00 -8°C° 0 mm 4 mps 732 mmHg 45%
    11:00 -7°C° 0 mm 4 mps 732 mmHg 39%
    12:00 -7°C° 0 mm 4 mps 731 mmHg 38%
    13:00 -6°C° 0 mm 5 mps 731 mmHg 37%
    14:00 -6°C° 0 mm 5 mps 730 mmHg 36%
    15:00 -5°C° 0 mm 4 mps 730 mmHg 40%
    16:00 -7°C° 0 mm 4 mps 730 mmHg 44%
    17:00 -7°C° 0 mm 3 mps 730 mmHg 48%
    18:00 -7°C° 0 mm 3 mps 730 mmHg 49%
    19:00 -8°C° 0 mm 3 mps 730 mmHg 51%
    20:00 -8°C° 0 mm 3 mps 730 mmHg 52%
    21:00 -8°C° 0 mm 3 mps 730 mmHg 53%
    22:00 -8°C° 0 mm 3 mps 730 mmHg 54%
    23:00 -8°C° 0 mm 3 mps 730 mmHg 55%

    18 December, Tuesday

    Time Temperature Precipitation Wind Pressure Humidity
    00:00 -8°C° 0 mm 3 mps 729 mmHg 56%
    01:00 -9°C° 0 mm 3 mps 729 mmHg 58%
    02:00 -9°C° 0 mm 3 mps 729 mmHg 60%
    03:00 -8°C° 0 mm 2 mps 728 mmHg 59%
    04:00 -8°C° 0 mm 2 mps 728 mmHg 59%
    05:00 -8°C° 0 mm 2 mps 727 mmHg 59%
    06:00 -7°C° 0 mm 2 mps 727 mmHg 59%
    07:00 -7°C° 0 mm 2 mps 727 mmHg 58%
    08:00 -7°C° 0 mm 2 mps 727 mmHg 58%
    09:00 -7°C° 0.1 mm 3 mps 727 mmHg 60%
    10:00 -7°C° 0.1 mm 4 mps 727 mmHg 63%
    11:00 -7°C° 0.1 mm 5 mps 727 mmHg 65%
    12:00 -7°C° 0.2 mm 5 mps 727 mmHg 68%
    13:00 -8°C° 0.2 mm 5 mps 728 mmHg 71%
    14:00 -8°C° 0.2 mm 5 mps 728 mmHg 74%
    15:00 -8°C° 0 mm 4 mps 729 mmHg 76%
    16:00 -9°C° 0 mm 4 mps 731 mmHg 78%
    17:00 -8°C° 0 mm 3 mps 732 mmHg 81%
    18:00 -8°C° 0 mm 3 mps 733 mmHg 82%
    19:00 -8°C° 0 mm 3 mps 734 mmHg 84%
    20:00 -8°C° 0 mm 2 mps 734 mmHg 85%
    21:00 -8°C° 0 mm 2 mps 735 mmHg 86%
    22:00 -8°C° 0 mm 2 mps 736 mmHg 87%
    23:00 -9°C° 0 mm 2 mps 736 mmHg 88%
    Show more